OE2WAO-25 Weather Reports


time (UTC)temp
C
wind
direction
speed
KPH
gust
KPH
rain 1hr
cm
rain 24hr
cm
rain mn
cm
humidity
%
barometer
mb
20260505125011 25 0.0 0.0 0.00 0.00 0.00 41 1004.8
20260505124003 26 0.0 0.0 0.00 0.00 0.00 39 1005.0
20260505122956 25 0.0 0.0 0.00 0.00 0.00 40 1005.2
20260505121948 25 0.0 0.0 0.00 0.00 0.00 40 1005.3
20260505120941 25 0.0 0.0 0.00 0.00 0.00 41 1005.5
20260505115933 25 0.0 0.0 0.00 0.00 0.00 41 1005.6
20260505114926 25 0.0 0.0 0.00 0.00 0.00 43 1005.8
20260505113919 24 0.0 0.0 0.00 0.00 0.00 44 1005.9
20260505112911 24 0.0 0.0 0.00 0.00 0.00 46 1006.1
20260505111904 24 0.0 0.0 0.00 0.00 0.00 47 1006.2
20260505110856 24 0.0 0.0 0.00 0.00 0.00 52 1006.3
20260505101819 21 0.0 0.0 0.00 0.00 0.00 76 1007.1
20260505100811 21 0.0 0.0 0.00 0.00 0.00 83 1007.2
20260505095804 21 0.0 0.0 0.00 0.00 0.00 71 1007.3
20260505094757 21 0.0 0.0 0.00 0.00 0.00 74 1007.4
20260505093749 21 0.0 0.0 0.00 0.00 0.00 95 1007.5
20260505092742 20 0.0 0.0 0.00 0.00 0.00 99 1007.6
20260505091734 20 0.0 0.0 0.00 0.00 0.00 95 1007.7
20260505090727 20 0.0 0.0 0.00 0.00 0.00 96 1007.7
20260505085719 20 0.0 0.0 0.00 0.00 0.00 99 1007.7
20260505084712 20 0.0 0.0 0.00 0.00 0.00 99 1007.7
20260505083705 19 0.0 0.0 0.00 0.00 0.00 99 1007.7
20260505082657 18 0.0 0.0 0.00 0.00 0.00 99 1007.8
20260505081651 18 0.0 0.0 0.00 0.00 0.00 99 1007.8
20260505080642 18 0.0 0.0 0.00 0.00 0.00 99 1007.9
20260505075635 18 0.0 0.0 0.00 0.00 0.00 99 1008.0
20260505074627 17 0.0 0.0 0.00 0.00 0.00 99 1008.0
20260505073620 17 0.0 0.0 0.00 0.00 0.00 99 1008.1
20260505072612 17 0.0 0.0 0.00 0.00 0.00 99 1008.2
20260505071605 17 0.0 0.0 0.00 0.00 0.00 99 1008.2
20260505070557 16 0.0 0.0 0.00 0.00 0.00 99 1008.2
20260505065549 16 0.0 0.0 0.00 0.00 0.00 99 1008.3
20260505064542 16 0.0 0.0 0.00 0.00 0.00 99 1008.3
20260505063535 16 0.0 0.0 0.00 0.00 0.00 99 1008.2
20260505062527 15 0.0 0.0 0.00 0.00 0.00 99 1008.2
20260505061520 15 0.0 0.0 0.00 0.00 0.00 99 1008.3
20260505060512 15 0.0 0.0 0.00 0.00 0.00 99 1008.4
20260505055505 14 0.0 0.0 0.00 0.00 0.00 99 1008.4
20260505054457 14 0.0 0.0 0.00 0.00 0.00 99 1008.5
20260505053450 13 0.0 0.0 0.00 0.00 0.00 99 1008.5
20260505052442 13 0.0 0.0 0.00 0.00 0.00 99 1008.5
20260505051435 13 0.0 0.0 0.00 0.00 0.00 99 1008.5
20260505050427 13 0.0 0.0 0.00 0.00 0.00 99 1008.4
20260505041350 13 0.0 0.0 0.00 0.00 0.00 99 1008.6
20260505040343 13 0.0 0.0 0.00 0.00 0.00 99 1008.7
20260505035335 13 0.0 0.0 0.00 0.00 0.00 99 1008.7
20260505034328 13 0.0 0.0 0.00 0.00 0.00 99 1008.7
20260505033320 13 0.0 0.0 0.00 0.00 0.00 99 1008.7
20260505032313 13 0.0 0.0 0.00 0.00 0.00 99 1008.8
20260505031305 13 0.0 0.0 0.00 0.00 0.00 99 1008.9
20260505030258 13 0.0 0.0 0.00 0.00 0.00 99 1009.0
20260505025250 13 0.0 0.0 0.00 0.00 0.00 99 1009.0
20260505024243 13 0.0 0.0 0.00 0.00 0.00 99 1009.1
20260505023235 14 0.0 0.0 0.00 0.00 0.00 99 1009.2
20260505022228 14 0.0 0.0 0.00 0.00 0.00 99 1009.3
20260505021220 14 0.0 0.0 0.00 0.00 0.00 99 1009.4
20260505020213 15 0.0 0.0 0.00 0.00 0.00 99 1009.5
20260505015205 15 0.0 0.0 0.00 0.00 0.00 99 1009.5
20260505014158 15 0.0 0.0 0.00 0.00 0.00 99 1009.6
20260505013150 15 0.0 0.0 0.00 0.00 0.00 99 1009.6
20260505012143 15 0.0 0.0 0.00 0.00 0.00 99 1009.6
20260505011135 15 0.0 0.0 0.00 0.00 0.00 99 1009.7
20260505010128 15 0.0 0.0 0.00 0.00 0.00 99 1009.8
20260505005120 15 0.0 0.0 0.00 0.00 0.00 99 1009.9
20260505004113 16 0.0 0.0 0.00 0.00 0.00 99 1010.0
20260505003105 16 0.0 0.0 0.00 0.00 0.00 99 1010.1
20260505002058 16 0.0 0.0 0.00 0.00 0.00 99 1010.1
20260505001050 16 0.0 0.0 0.00 0.00 0.00 99 1010.2
20260505000043 16 0.0 0.0 0.00 0.00 0.00 99 1010.3
20260504235036 16 0.0 0.0 0.00 0.00 0.00 99 1010.3
20260504234028 16 0.0 0.0 0.00 0.00 0.00 99 1010.3
20260504233020 16 0.0 0.0 0.00 0.00 0.00 99 1010.3
20260504232013 16 0.0 0.0 0.00 0.00 0.00 99 1010.3
20260504231006 16 0.0 0.0 0.00 0.00 0.00 99 1010.3
20260504225958 16 0.0 0.0 0.00 0.00 0.00 99 1010.4
20260504224951 16 0.0 0.0 0.00 0.00 0.00 99 1010.4
20260504223943 16 0.0 0.0 0.00 0.00 0.00 99 1010.5
20260504222935 16 0.0 0.0 0.00 0.00 0.00 99 1010.6
20260504221928 16 0.0 0.0 0.00 0.00 0.00 99 1010.4
20260504220921 17 0.0 0.0 0.00 0.00 0.00 99 1010.3
20260504215913 17 0.0 0.0 0.00 0.00 0.00 99 1010.3
20260504214905 17 0.0 0.0 0.00 0.00 0.00 99 1010.3
20260504213858 17 0.0 0.0 0.00 0.00 0.00 99 1010.3
20260504212850 17 0.0 0.0 0.00 0.00 0.00 99 1010.3
20260504211844 17 0.0 0.0 0.00 0.00 0.00 99 1010.3
20260504210836 17 0.0 0.0 0.00 0.00 0.00 99 1010.3
20260504205828 17 0.0 0.0 0.00 0.00 0.00 99 1010.3
20260504204821 18 0.0 0.0 0.00 0.00 0.00 99 1010.2
20260504203813 18 0.0 0.0 0.00 0.00 0.00 99 1010.2
20260504202806 18 0.0 0.0 0.00 0.00 0.00 99 1010.2
20260504201759 18 0.0 0.0 0.00 0.00 0.00 99 1010.2
20260504200750 18 0.0 0.0 0.00 0.00 0.00 99 1010.2
20260504195743 18 0.0 0.0 0.00 0.00 0.00 99 1010.2
20260504194735 19 0.0 0.0 0.00 0.00 0.00 99 1010.1
20260504193726 20 0.0 0.0 0.00 0.00 0.00 99 1010.1
20260504192719 20 0.0 0.0 0.00 0.00 0.00 99 1010.1
20260504191711 20 0.0 0.0 0.00 0.00 0.00 96 1010.0
20260504190704 20 0.0 0.0 0.00 0.00 0.00 99 1010.0
20260504185656 21 0.0 0.0 0.00 0.00 0.00 99 1009.9
20260504184649 21 0.0 0.0 0.00 0.00 0.00 97 1009.9
20260504183642 21 0.0 0.0 0.00 0.00 0.00 86 1009.8
20260504182634 22 0.0 0.0 0.00 0.00 0.00 78 1009.8
20260504181626 22 0.0 0.0 0.00 0.00 0.00 68 1009.8
20260504180619 22 0.0 0.0 0.00 0.00 0.00 66 1009.8
20260504175611 23 0.0 0.0 0.00 0.00 0.00 64 1009.9
20260504174604 23 0.0 0.0 0.00 0.00 0.00 63 1009.8
20260504173557 23 0.0 0.0 0.00 0.00 0.00 62 1009.8
20260504172549 23 0.0 0.0 0.00 0.00 0.00 62 1009.9
20260504171542 23 0.0 0.0 0.00 0.00 0.00 63 1009.8
20260504170534 24 0.0 0.0 0.00 0.00 0.00 58 1009.7
20260504150405 27 0.0 0.0 0.00 0.00 0.00 47 1009.8